Flag for U.S.A. Weather past 2 weeks in Berkeley, California, U.S.A.

Now
78 °F

Partly sunny.


Feels Like: 79 °F
Forecast: 60 / 79 °F
Wind: 13 mph from Northwest

Location: Metro Oakland International Airport

Current Time: Jun 30, 2015 at 6:01:59 PM

Latest Report: Jun 30, 2015 at 4:53 PM


Visibility: 10 mi

Pressure: 29.81 "Hg

Humidity: 45%

Dew point: 55 °F

Location of BerkeleyLocation

Historic Weather in Berkeley — Graph

°F

Berkeley temperature yesterday

Maximum temperature yesterday: 72 °F (at 3:53 PM)
Minimum temperature yesterday: 58 °F (at 4:53 AM)
Average temperature yesterday: 63 °F

Past Weeks' High & Low Weather Summary

 TemperatureHumidityPressure
High81 °F (Jun 30, 2:53 PM)90% (Jun 20, 6:53 AM)30.07 "Hg (Jun 20, 6:53 AM)
Low52 °F (Jun 18, 1:53 AM)39% (Jun 30, 2:53 PM)29.81 "Hg (Jun 30, 3:53 PM)
Average62 °F71%29.96 "Hg
* Reported Jun 15 4:53 PM — Jun 30 4:53 PM, Berkeley, Weather by CustomWeather, © 2015

Note: Actual official high and low records may vary slightly from our data, if they occured in-between our weather recording intervals... More about our weather records

Advertising

Berkeley weather history for previous 24 hours

 ConditionsComfort  
Time TempWeatherWind HumidityBarometerVisibility
4:53 PM
Tue, Jun 30
78 °FPartly sunny.13 mph45%29.81 "Hg10 mi
3:53 PM80 °FPartly sunny.10 mph44%29.81 "Hg10 mi
2:53 PM81 °FScattered clouds.14 mph39%29.83 "Hg10 mi
1:53 PM78 °FScattered clouds.9 mph45%29.85 "Hg10 mi
12:53 PM76 °FScattered clouds.8 mph50%29.88 "Hg10 mi
11:53 AM72 °FScattered clouds.7 mph57%29.89 "Hg10 mi
10:53 AM69 °FScattered clouds.6 mph63%29.89 "Hg10 mi
9:53 AM66 °FScattered clouds.5 mph70%29.90 "Hg10 mi
8:53 AM63 °FScattered clouds.8 mph75%29.90 "Hg10 mi
7:53 AM61 °FScattered clouds.6 mph81%29.91 "Hg10 mi
6:53 AM59 °FScattered clouds.7 mph87%29.91 "Hg10 mi
5:53 AM57 °FPassing clouds.7 mph90%29.90 "Hg10 mi
4:53 AM58 °FPassing clouds.7 mph87%29.90 "Hg10 mi
3:53 AM58 °FClear.6 mph90%29.90 "Hg10 mi
2:53 AM58 °FPassing clouds.No wind87%29.91 "Hg10 mi
1:53 AM59 °FPassing clouds.No wind84%29.92 "Hg10 mi
12:53 AM59 °FPassing clouds.5 mph84%29.92 "Hg10 mi
11:53 PM
Mon, Jun 29
58 °FPassing clouds.5 mph84%29.94 "Hg10 mi
10:53 PM61 °FPassing clouds.8 mph78%29.95 "Hg10 mi
9:53 PM62 °FPassing clouds.13 mph75%29.95 "Hg10 mi
8:53 PM62 °FPassing clouds.10 mph75%29.93 "Hg10 mi
7:53 PM65 °FPassing clouds.14 mph70%29.93 "Hg10 mi
6:53 PM67 °FPassing clouds.15 mph66%29.92 "Hg10 mi
Weather by CustomWeather, © 2015

See weather overviewHow to use our weather pages